ARG3278 SARP-SARC

Flight info

Callsign ARG3278
Flight time N/A
Altitude 20000
Route UTKES DCT MOVLO DCT REPAM B687 LUTSO LUTSO2V
Aircraft A320/M-SDE3FGHIRWY/LB1

Departure

Time 2026-04-29 23:00
Airport Libertador Gral D Jose De San Martin Airport (SARP)

Arrival

Time N/A
Airport Corrientes Airport (SARC)
Time Latitude Longitude Altitude Speed Heading
2026-04-29 22:27 -27.39204 -55.96732 422 ft 0 kts 152°
2026-04-29 22:50 -27.39203 -55.96732 421 ft 0 kts 152°
2026-04-29 22:55 -27.39205 -55.96733 421 ft 1 kts 162°
2026-04-29 22:56 -27.39209 -55.96746 411 ft 4 kts 260°
2026-04-29 22:56 -27.39247 -55.96789 421 ft 12 kts 223°
2026-04-29 22:56 -27.39196 -55.96858 414 ft 17 kts
2026-04-29 22:56 -27.39098 -55.96870 418 ft 13 kts 311°
2026-04-29 22:57 -27.39064 -55.96951 418 ft 12 kts 318°
2026-04-29 22:57 -27.38954 -55.97017 416 ft 25 kts 332°
2026-04-29 22:57 -27.38782 -55.97052 413 ft 24 kts 359°
2026-04-29 22:57 -27.38613 -55.97054 417 ft 25 kts 360°
2026-04-29 22:58 -27.38431 -55.97052 410 ft 27 kts
2026-04-29 22:58 -27.38244 -55.97053 412 ft 27 kts 358°
2026-04-29 22:58 -27.38051 -55.97060 416 ft 28 kts 359°
2026-04-29 22:58 -27.37853 -55.97062 414 ft 28 kts 359°
2026-04-29 22:59 -27.37696 -55.97002 422 ft 25 kts 30°
2026-04-29 22:59 -27.37581 -55.96991 418 ft 13 kts 310°
2026-04-29 22:59 -27.37597 -55.97065 417 ft 9 kts 207°
2026-04-29 22:59 -27.37620 -55.97067 415 ft 0 kts 178°
2026-04-29 23:00 -27.37680 -55.97065 419 ft 37 kts 178°
2026-04-29 23:00 -27.38217 -55.97056 412 ft 114 kts 179°
2026-04-29 23:00 -27.39204 -55.97041 539 ft 158 kts 178°
2026-04-29 23:00 -27.40333 -55.97032 1165 ft 166 kts 179°
2026-04-29 23:01 -27.41506 -55.97045 1879 ft 167 kts 178°
2026-04-29 23:01 -27.42730 -55.97068 2183 ft 187 kts 179°
2026-04-29 23:01 -27.44108 -55.97091 2479 ft 208 kts 178°
2026-04-29 23:01 -27.45635 -55.97099 2753 ft 233 kts 178°
2026-04-29 23:02 -27.47337 -55.97050 3155 ft 255 kts 176°
2026-04-29 23:02 -27.49145 -55.96972 3878 ft 263 kts 177°
2026-04-29 23:02 -27.50993 -55.96901 4738 ft 267 kts 178°
2026-04-29 23:02 -27.52865 -55.96916 5567 ft 271 kts 188°
2026-04-29 23:03 -27.54647 -55.97624 6376 ft 276 kts 212°
2026-04-29 23:03 -27.56032 -55.99110 7149 ft 278 kts 237°
2026-04-29 23:03 -27.56770 -56.01119 7931 ft 280 kts 259°
2026-04-29 23:03 -27.57165 -56.03271 8775 ft 281 kts 260°
2026-04-29 23:04 -27.57551 -56.05431 9627 ft 282 kts 261°
2026-04-29 23:04 -27.57874 -56.07619 10396 ft 283 kts 268°
2026-04-29 23:04 -27.57815 -56.09841 10809 ft 298 kts 277°
2026-04-29 23:04 -27.57578 -56.12249 10999 ft 321 kts 277°
2026-04-29 23:05 -27.57316 -56.14813 11355 ft 335 kts 277°
2026-04-29 23:05 -27.57047 -56.17449 11982 ft 341 kts 277°
2026-04-29 23:05 -27.56781 -56.20121 12665 ft 345 kts 276°
2026-04-29 23:05 -27.56518 -56.22824 13339 ft 349 kts 276°
2026-04-29 23:06 -27.56256 -56.25555 13967 ft 353 kts 276°
2026-04-29 23:06 -27.55993 -56.28312 14566 ft 355 kts 276°
2026-04-29 23:06 -27.55724 -56.31084 15184 ft 357 kts 276°
2026-04-29 23:06 -27.55453 -56.33878 15821 ft 359 kts 276°
2026-04-29 23:07 -27.55177 -56.36683 16445 ft 361 kts 277°
2026-04-29 23:07 -27.54895 -56.39501 17066 ft 363 kts 277°
2026-04-29 23:07 -27.54611 -56.42332 17686 ft 365 kts 277°
2026-04-29 23:07 -27.54324 -56.45182 18311 ft 367 kts 277°
2026-04-29 23:08 -27.54039 -56.48043 18854 ft 369 kts 277°
2026-04-29 23:08 -27.53756 -56.50916 19417 ft 370 kts 277°
2026-04-29 23:08 -27.53471 -56.53800 19854 ft 370 kts 278°
2026-04-29 23:08 -27.53187 -56.56677 19983 ft 369 kts 278°
2026-04-29 23:09 -27.52894 -56.59590 20012 ft 376 kts 278°
2026-04-29 23:09 -27.52600 -56.62525 20016 ft 378 kts 278°
2026-04-29 23:09 -27.52305 -56.65465 20016 ft 378 kts 278°
2026-04-29 23:09 -27.52007 -56.68407 20016 ft 378 kts 278°
2026-04-29 23:10 -27.51711 -56.71347 20014 ft 378 kts 278°
2026-04-29 23:10 -27.51409 -56.74291 20011 ft 378 kts 278°
2026-04-29 23:10 -27.51110 -56.77190 20018 ft 378 kts 278°
2026-04-29 23:10 -27.50810 -56.80131 20018 ft 378 kts 277°
2026-04-29 23:11 -27.50513 -56.83068 20012 ft 378 kts 277°
2026-04-29 23:11 -27.50215 -56.86010 20019 ft 378 kts 278°
2026-04-29 23:11 -27.49913 -56.88947 20018 ft 378 kts 278°
2026-04-29 23:11 -27.49610 -56.91889 20017 ft 378 kts 277°
2026-04-29 23:12 -27.49312 -56.94832 20020 ft 378 kts 277°
2026-04-29 23:12 -27.49013 -56.97769 20019 ft 378 kts 277°
2026-04-29 23:12 -27.48714 -57.00706 20017 ft 378 kts 277°
2026-04-29 23:12 -27.48413 -57.03649 20018 ft 378 kts 277°
2026-04-29 23:13 -27.48110 -57.06586 20014 ft 378 kts 278°
2026-04-29 23:13 -27.47802 -57.09523 20019 ft 378 kts 278°
2026-04-29 23:13 -27.47492 -57.12461 20015 ft 378 kts 278°
2026-04-29 23:13 -27.47184 -57.15397 20022 ft 377 kts 278°
2026-04-29 23:14 -27.46875 -57.18332 20018 ft 377 kts 277°
2026-04-29 23:14 -27.46572 -57.21264 20022 ft 377 kts 277°
2026-04-29 23:14 -27.46268 -57.24197 20013 ft 377 kts 277°
2026-04-29 23:14 -27.45965 -57.27130 20015 ft 377 kts 277°
2026-04-29 23:15 -27.45655 -57.30066 20019 ft 377 kts 278°
2026-04-29 23:15 -27.45344 -57.32995 20020 ft 377 kts 278°
2026-04-29 23:15 -27.45039 -57.35930 20015 ft 377 kts 277°
2026-04-29 23:15 -27.44736 -57.38862 20017 ft 377 kts 277°
2026-04-29 23:16 -27.44426 -57.41789 20008 ft 377 kts 278°
2026-04-29 23:16 -27.44111 -57.44685 20011 ft 377 kts 278°
2026-04-29 23:16 -27.43791 -57.47653 20011 ft 377 kts 278°
2026-04-29 23:16 -27.43476 -57.50545 20006 ft 377 kts 278°
2026-04-29 23:17 -27.43161 -57.53472 20013 ft 377 kts 278°
2026-04-29 23:17 -27.42922 -57.56414 20015 ft 378 kts 272°
2026-04-29 23:17 -27.42957 -57.59376 20013 ft 378 kts 270°
2026-04-29 23:17 -27.42998 -57.62335 20017 ft 378 kts 270°
2026-04-29 23:18 -27.43040 -57.65296 20018 ft 378 kts 270°
2026-04-29 23:18 -27.43075 -57.68251 20017 ft 378 kts 271°
2026-04-29 23:18 -27.43104 -57.71214 20014 ft 378 kts 271°
2026-04-29 23:18 -27.43134 -57.74174 20017 ft 378 kts 271°
2026-04-29 23:19 -27.43160 -57.77131 20017 ft 378 kts 271°
2026-04-29 23:19 -27.43183 -57.80087 20019 ft 377 kts 271°
2026-04-29 23:19 -27.43206 -57.83007 20014 ft 370 kts 271°